Theta_e
307 308 308 309 309 309 308 308 308 308 307 307 306 306 306 305 305 305 305 305 305 305 305 305 305 305 306 306 307 307 305 306 308 310 310 310 310 310 308 307 308 306 305 308 311 312 312 312 313 313 314 313 313 314 315 316 317 316 316 314 313 314 315 316 319 318 318 318 318 318 318 318 319 320 324 330 331 330 331 330 329 333 340 346 350 352 354 354
306 307 307 307 308 309 309 308 308 308 308 307 307 306 306 306 305 306 305 305 305 305 305 305 305 305 305 305 306 305 305 308 309 310 311 310 309 308 307 305 306 306 306 309 313 312 313 312 312 313 313 313 314 314 314 316 316 316 316 314 313 317 317 317 319 319 318 318 318 319 318 318 318 318 327 334 332 328 328 329 330 337 344 348 353 353 354 355
305 306 306 306 307 307 308 308 308 308 308 308 307 307 307 306 306 306 305 305 305 305 305 304 305 305 305 305 305 303 305 309 309 311 311 310 309 307 306 307 309 308 308 312 312 313 314 312 313 314 312 312 314 313 314 316 315 315 315 314 315 317 318 319 318 318 318 318 317 319 317 318 318 318 327 332 333 329 325 327 332 339 345 349 352 352 355 355
304 304 305 306 306 306 307 307 307 308 308 308 308 307 307 307 306 306 306 305 305 305 305 304 305 305 305 305 304 304 307 309 310 313 311 307 306 305 304 306 309 310 313 315 313 313 313 313 314 313 313 312 313 314 313 315 314 315 315 315 316 317 317 319 319 318 317 317 316 318 318 318 318 318 323 327 330 331 326 328 334 339 342 346 351 352 354 355
303 304 304 304 305 305 306 306 307 307 307 308 308 308 307 307 307 307 306 306 305 305 304 304 304 304 305 304 303 305 308 309 312 315 310 305 304 304 303 305 309 312 317 318 314 314 313 312 313 313 313 312 313 314 313 315 315 315 315 315 317 317 318 319 319 318 317 316 317 317 317 318 319 318 320 322 325 331 330 329 333 337 338 342 350 351 352 353
301 303 303 303 303 304 304 305 306 306 306 306 307 308 308 307 307 307 306 306 305 305 304 304 304 304 304 303 304 306 309 310 312 314 310 305 304 305 304 305 309 312 317 318 315 314 312 311 311 313 313 313 313 313 313 314 315 315 316 315 315 316 318 318 318 317 317 317 316 317 317 318 319 318 319 320 321 327 332 331 332 336 336 342 351 350 351 352
300 301 302 302 302 302 303 304 305 305 306 306 306 307 307 308 308 307 307 306 306 305 304 304 304 304 304 303 305 307 307 308 310 311 309 306 305 306 305 306 309 313 317 318 316 313 312 311 310 312 313 312 313 313 314 314 314 315 315 316 316 316 317 317 319 318 317 317 317 317 317 318 318 318 320 319 320 323 330 336 336 339 340 345 350 350 351 351
301 300 300 301 301 301 302 302 304 304 305 305 306 306 307 307 307 307 307 306 306 305 305 304 304 304 303 304 306 307 307 308 310 310 308 306 306 307 306 306 309 314 318 317 316 313 311 310 310 311 313 313 313 314 314 314 314 314 315 316 317 318 317 317 318 317 317 317 317 317 316 318 317 319 319 319 321 322 329 339 341 343 345 343 348 351 350 351
302 302 301 300 301 301 301 301 302 303 304 305 305 306 306 307 307 307 307 307 306 305 305 304 304 304 303 305 306 306 307 308 308 309 308 307 307 307 307 307 307 312 319 319 316 314 311 310 310 312 313 314 313 314 314 313 313 314 315 316 316 316 317 317 317 316 316 316 317 316 316 317 317 318 319 319 321 321 327 339 342 345 343 340 345 351 351 351
302 303 302 301 301 301 301 301 301 302 303 303 304 305 305 306 306 307 307 307 307 306 306 305 304 303 303 305 305 306 307 307 307 308 309 307 307 307 307 308 307 309 316 320 317 314 311 310 311 312 313 313 314 314 314 314 313 314 315 316 316 315 316 317 316 316 316 316 316 316 316 316 318 318 319 320 319 322 330 337 341 344 342 338 343 350 351 351
302 303 303 302 302 301 300 300 301 302 303 303 304 304 304 305 306 306 307 307 307 306 306 306 305 304 303 303 303 305 307 307 307 308 308 308 307 308 307 307 307 307 311 317 318 315 312 311 312 312 312 312 313 314 314 314 314 315 314 315 316 315 315 316 316 317 316 316 316 316 316 316 318 318 319 322 322 327 335 337 340 342 338 338 343 348 349 349
303 303 303 303 302 302 301 301 301 301 302 303 303 303 303 304 305 306 306 306 307 307 306 306 305 304 304 303 302 305 306 306 307 307 307 307 307 307 307 307 307 307 308 312 316 316 313 312 311 311 311 312 312 312 313 314 314 314 314 314 314 315 315 316 316 316 317 317 317 316 315 315 317 317 319 326 331 334 337 339 342 342 339 341 345 347 347 348
303 303 303 303 303 303 302 302 302 301 301 302 302 303 303 303 304 305 306 306 306 306 306 306 306 305 304 303 303 304 305 305 305 305 306 306 307 307 307 306 306 307 307 309 312 315 314 313 311 311 311 312 312 312 313 313 313 313 314 313 314 314 313 315 316 315 317 316 317 316 311 312 318 318 318 327 337 337 337 342 344 342 341 345 347 347 346 346
302 302 302 303 303 303 303 302 302 302 301 300 302 303 302 302 303 304 305 305 306 306 306 306 305 305 304 304 304 305 304 304 305 305 306 306 307 307 307 307 307 307 307 308 310 313 314 313 311 311 311 312 312 312 312 312 312 313 312 312 312 310 311 315 315 315 316 314 317 316 310 312 318 319 318 326 336 337 338 343 344 343 341 343 348 347 346 346
301 302 302 302 303 302 303 302 302 302 301 299 300 301 301 301 302 303 304 304 305 305 305 306 304 304 304 304 304 305 305 305 305 305 305 306 306 307 307 308 307 307 307 308 309 311 313 312 311 310 311 312 312 312 311 311 313 312 311 310 311 309 310 316 316 314 315 314 316 315 311 313 318 318 319 327 333 336 340 344 344 345 343 342 346 347 347 347
301 302 302 302 302 302 302 302 302 302 301 299 299 300 300 300 301 302 303 304 304 304 304 305 305 304 304 304 305 305 305 305 306 306 306 306 306 307 308 308 308 307 308 308 309 311 312 311 310 310 311 311 311 311 311 310 310 312 311 308 309 308 309 314 315 316 316 315 315 315 313 314 318 320 322 328 331 334 342 345 343 343 343 344 345 346 347 347
301 301 301 301 302 302 302 302 302 302 301 300 299 299 299 300 300 301 303 303 304 304 305 305 305 305 305 305 304 304 306 306 306 307 307 306 306 307 309 309 308 307 308 309 310 311 311 311 309 310 311 311 311 310 310 308 308 310 310 309 309 310 309 310 314 316 315 315 315 316 315 315 318 322 323 329 330 334 342 341 340 339 340 344 345 346 348 347
301 301 301 301 301 301 302 302 302 302 301 300 299 299 299 299 300 302 303 304 305 305 304 305 304 304 305 305 304 305 306 307 306 306 307 307 307 308 309 309 307 308 308 309 310 310 310 310 309 309 310 311 311 311 309 309 309 309 309 309 309 310 310 310 313 316 315 315 315 315 315 316 319 321 325 330 331 334 340 340 339 339 342 346 346 346 348 347
300 301 301 301 300 300 301 302 301 301 301 300 300 300 300 301 302 304 304 305 305 305 304 304 303 304 305 305 306 306 306 307 306 306 306 308 308 308 309 309 307 307 308 309 310 310 310 309 309 308 309 310 311 311 310 311 311 311 311 310 308 309 310 312 315 317 317 315 315 315 315 316 319 321 326 331 331 335 341 343 343 342 343 345 345 344 347 348
300 301 301 301 300 300 300 301 301 301 301 300 300 301 301 302 304 305 305 304 304 305 304 304 304 303 303 304 306 306 304 305 305 306 307 307 308 308 308 308 307 307 309 310 311 310 309 309 308 308 309 311 311 311 311 312 313 313 313 311 310 309 310 314 315 316 317 314 314 316 316 316 318 320 326 330 331 334 340 343 343 343 343 342 344 345 347 349
300 300 300 300 300 300 300 300 300 301 300 300 301 301 301 301 303 304 304 304 304 305 303 303 304 304 304 305 305 305 305 305 305 305 307 308 308 308 307 308 307 307 309 309 311 311 310 309 309 309 310 311 312 312 312 312 313 313 313 311 310 310 312 315 316 315 316 314 313 316 317 317 317 320 324 329 331 335 339 343 343 343 342 339 343 345 346 349
299 300 300 300 300 300 300 300 300 300 300 300 301 301 301 301 302 303 303 303 303 305 303 303 304 303 304 305 305 305 304 305 305 305 307 308 307 307 307 307 307 308 309 310 312 311 310 310 310 310 310 311 312 313 313 312 313 313 312 311 309 311 312 314 316 316 316 314 314 316 316 316 318 320 322 326 331 334 335 341 345 345 345 342 343 344 344 347
299 299 299 299 300 299 300 300 299 299 300 300 301 301 301 301 302 302 302 303 302 303 303 303 303 303 304 304 305 304 303 304 305 305 307 308 307 307 307 307 307 308 309 310 312 312 310 310 310 311 311 311 312 313 312 312 312 312 312 310 309 311 311 309 312 315 316 314 314 316 315 316 319 318 320 323 328 334 333 334 339 342 345 344 344 344 343 346
299 299 298 298 298 299 300 299 299 300 300 301 300 301 301 301 303 302 302 303 302 302 303 303 304 303 303 304 305 304 303 304 304 305 307 307 307 307 307 307 307 308 309 310 311 312 311 311 311 311 311 312 312 312 312 312 311 312 312 311 310 312 311 311 313 315 315 314 315 315 312 313 318 318 319 322 326 333 332 332 336 339 342 338 338 342 342 346
299 299 299 298 298 298 298 299 300 301 300 300 300 301 301 301 303 303 303 303 302 302 304 304 304 304 304 305 305 304 304 304 304 305 306 307 307 307 307 307 307 307 309 310 311 311 312 313 312 311 311 311 311 312 312 312 310 310 312 313 312 313 313 313 314 314 310 310 313 314 309 309 315 318 319 321 326 330 332 334 335 338 341 339 338 337 338 344
300 299 299 298 298 298 298 299 300 300 300 300 301 301 302 302 302 302 303 303 302 303 304 305 304 305 305 305 305 305 305 305 305 305 307 307 307 307 308 307 307 308 309 310 311 312 312 313 313 312 311 311 311 312 312 312 310 309 312 313 313 313 313 312 313 311 308 308 313 314 311 309 312 315 319 322 325 329 331 334 335 335 338 339 342 340 340 345
300 300 299 299 298 297 299 300 299 299 299 300 302 302 302 302 301 302 302 302 303 304 304 306 306 306 306 306 305 305 306 307 306 306 306 307 307 308 308 308 307 307 309 311 311 312 313 313 313 312 311 311 310 310 312 312 310 310 312 313 312 312 313 313 312 311 310 311 313 315 312 309 309 313 318 322 325 328 329 332 335 334 333 336 342 342 342 342
300 300 300 299 299 298 298 299 299 299 299 300 302 301 301 300 300 301 302 302 306 306 306 306 306 306 306 307 306 305 307 307 306 305 306 307 307 307 307 308 307 307 309 310 311 312 313 313 312 311 311 311 310 311 312 312 310 311 313 313 312 312 312 313 312 310 311 311 309 310 312 309 308 312 320 323 323 325 328 332 337 336 335 336 336 338 338 334
300 300 300 299 299 299 298 299 300 300 299 300 301 301 301 299 299 301 302 303 307 306 307 306 305 306 307 307 306 305 306 306 306 305 305 306 307 307 307 308 308 308 308 310 311 312 312 313 312 312 311 310 311 311 312 311 311 311 313 313 312 313 312 313 312 310 310 310 307 309 310 308 307 310 315 319 318 322 326 331 336 335 335 333 331 337 336 333
300 300 300 299 299 299 299 300 300 299 299 300 300 301 300 299 300 302 302 306 308 306 306 305 305 306 307 307 306 305 306 306 307 305 304 305 306 306 308 308 308 307 308 310 310 312 312 312 313 312 311 311 311 312 312 311 311 312 312 313 312 312 313 313 312 309 309 309 308 309 310 309 308 309 313 317 318 322 325 327 331 332 331 330 332 336 335 335
299 300 300 299 300 300 300 300 299 299 300 300 300 301 301 300 301 302 303 306 308 308 307 305 306 306 307 307 306 305 306 306 307 305 304 305 306 306 307 308 308 307 308 309 310 311 312 312 313 313 313 312 312 311 312 311 310 311 311 311 310 310 310 310 310 309 310 309 308 309 311 310 308 309 314 320 321 321 324 326 328 329 330 329 335 337 336 337
299 299 299 299 300 300 300 300 299 299 300 300 300 300 300 301 301 302 303 303 307 309 308 306 308 307 307 308 306 305 305 306 307 305 304 305 305 306 307 308 308 308 308 309 310 311 312 312 313 313 313 313 312 310 310 311 310 311 310 310 309 308 309 309 309 309 309 309 309 310 311 310 309 311 316 320 321 322 323 325 325 327 328 331 335 337 338 338
299 298 299 299 300 301 301 301 300 299 300 300 301 300 300 300 302 302 300 303 307 307 307 306 306 306 307 308 307 306 306 306 307 305 305 305 306 307 307 308 308 308 309 310 310 310 312 313 312 312 313 312 312 310 308 309 309 310 309 308 308 308 310 312 310 310 310 309 309 311 311 309 308 313 318 320 321 321 323 324 323 326 327 330 336 337 338 338
298 298 300 301 301 301 301 300 300 299 300 301 300 301 301 301 302 300 301 305 306 306 306 306 305 306 307 308 308 306 306 306 307 306 306 305 306 307 307 308 308 308 309 311 311 311 311 313 312 312 312 312 313 312 311 310 310 310 310 309 309 308 310 311 309 309 309 308 308 310 310 308 308 313 318 320 320 321 322 321 324 328 324 329 338 340 339 339
298 299 301 301 301 302 301 301 300 300 300 301 300 301 302 303 301 300 304 305 305 305 305 304 305 307 308 308 308 307 306 308 306 306 307 305 307 308 307 307 308 308 310 311 312 311 310 312 312 312 312 312 313 313 313 312 309 310 311 309 308 308 309 309 309 310 310 309 309 309 309 310 312 317 319 319 319 320 321 322 327 329 327 336 342 342 342 341
300 301 302 302 302 303 302 302 302 301 301 301 301 302 302 302 301 303 305 304 304 305 305 305 306 309 309 307 308 307 306 308 307 306 306 306 307 308 307 307 308 308 310 311 312 311 310 311 312 312 312 312 313 313 314 312 309 310 309 308 310 312 312 309 309 311 311 310 310 309 310 311 313 317 319 319 318 320 321 322 326 327 330 342 345 343 342 343
301 301 302 301 302 302 303 303 302 302 301 301 302 303 302 301 302 303 305 304 303 304 304 305 306 309 311 309 307 307 306 307 307 306 306 307 307 308 308 308 308 309 309 311 311 311 311 312 312 312 312 312 313 313 313 312 312 311 308 309 311 312 313 311 309 311 312 311 311 309 310 310 309 313 319 321 320 321 322 322 323 322 326 337 343 344 344 343
301 302 302 302 302 303 302 302 302 302 302 301 303 303 301 301 302 303 303 303 303 303 304 305 306 307 309 310 308 305 306 307 307 306 307 307 308 308 307 308 308 308 309 311 312 311 312 311 311 312 312 312 312 312 312 312 313 312 310 312 311 310 309 309 310 311 312 311 311 309 310 310 308 310 316 321 322 323 322 321 322 322 323 329 336 342 343 342
302 302 302 302 303 303 302 302 303 302 302 302 302 303 302 301 301 303 303 303 303 303 303 305 305 305 307 309 309 306 306 307 307 307 308 307 308 309 308 308 308 307 309 310 312 312 313 313 312 312 311 312 311 311 311 311 312 312 313 312 312 310 309 309 310 311 312 312 311 310 311 310 310 313 316 321 324 324 322 322 322 324 325 325 328 337 340 340
302 302 302 302 302 303 302 302 303 302 302 303 302 302 301 300 301 303 303 303 303 303 303 303 303 304 306 308 309 307 307 307 307 308 308 308 309 309 308 308 308 308 309 310 312 313 312 314 312 311 310 311 311 311 311 311 311 312 311 310 310 311 311 311 311 310 310 310 310 311 311 310 312 317 317 321 324 324 322 323 324 324 327 326 326 338 342 342
302 302 302 303 302 302 302 302 303 302 302 302 302 301 300 300 301 302 303 303 303 303 303 303 303 304 306 309 310 308 307 308 307 308 309 308 309 309 308 308 309 308 309 310 312 313 312 313 312 311 310 310 311 312 312 312 313 312 311 310 310 310 310 311 311 310 309 309 309 311 309 309 317 321 316 319 325 325 323 322 322 324 329 327 329 339 344 343
302 302 303 303 302 302 303 302 303 302 302 302 301 300 300 300 300 301 302 303 303 303 304 304 304 305 307 309 311 310 308 308 307 308 309 309 310 310 308 309 309 308 310 310 311 313 313 313 312 311 310 310 311 312 312 312 313 313 313 312 313 312 310 310 310 310 309 309 309 309 307 313 326 328 322 323 325 326 327 326 325 327 329 330 334 341 344 342
303 303 303 303 302 302 303 303 302 302 302 302 301 300 300 301 301 302 302 302 303 304 305 305 306 307 308 309 310 310 309 308 308 308 309 308 309 310 309 309 308 308 310 310 311 313 313 313 312 311 310 310 311 311 312 312 313 312 312 313 313 313 311 311 312 311 310 309 309 308 308 317 330 332 329 329 328 332 335 333 332 334 335 338 342 344 343 341
302 303 303 304 302 302 303 303 302 302 303 303 303 302 301 301 301 302 302 303 304 305 305 306 306 307 308 309 310 311 310 310 308 308 309 309 309 309 309 308 308 309 309 310 312 312 313 313 312 312 311 310 311 311 311 312 311 311 312 312 314 313 313 314 313 313 312 309 309 309 309 317 329 333 330 329 328 333 337 336 336 340 342 344 344 343 342 340
302 303 303 304 303 303 303 303 303 303 304 304 305 305 304 303 303 303 303 303 304 304 305 305 305 306 308 308 310 311 311 310 310 309 309 309 309 309 308 308 308 308 309 313 314 312 312 314 313 312 312 311 311 311 311 311 311 312 312 312 313 313 313 314 312 311 312 310 310 309 310 320 330 332 329 328 327 331 337 339 339 341 343 343 342 342 341 341
303 303 302 302 303 303 303 303 303 303 304 304 305 305 306 306 305 305 305 305 305 305 305 305 306 307 309 310 311 312 311 311 311 310 310 310 309 308 308 309 308 308 312 317 316 312 312 314 314 313 312 311 311 312 312 311 310 310 312 312 312 313 314 314 312 311 311 311 311 310 314 322 328 328 326 326 328 334 339 339 338 340 341 341 341 340 339 339
302 302 301 301 302 303 304 304 304 304 304 305 305 305 306 306 307 307 306 306 307 306 306 307 307 309 311 312 313 312 311 311 312 311 310 311 309 309 309 308 308 312 316 316 313 312 312 313 314 313 313 312 312 312 312 312 311 311 311 312 312 312 314 314 312 312 313 311 311 313 315 317 322 326 325 324 330 337 337 337 336 338 339 339 340 337 335 336
302 301 301 301 301 302 303 304 304 304 304 305 305 305 306 307 308 308 308 307 307 307 308 309 310 311 311 312 314 314 313 312 314 313 311 310 309 309 309 308 308 313 314 311 310 313 313 312 313 314 313 313 313 313 313 312 312 313 313 313 313 313 313 314 314 315 314 312 312 315 316 313 318 326 327 327 331 332 334 335 335 336 337 337 337 335 334 335
301 301 301 301 301 302 302 303 304 304 305 306 306 306 307 308 308 308 308 308 309 309 309 310 312 312 312 312 313 315 316 316 315 313 312 311 310 310 310 309 309 310 310 310 312 314 312 313 314 314 313 315 314 315 314 313 313 312 313 313 314 314 313 314 316 317 316 315 314 316 317 315 319 327 329 330 330 328 331 334 333 335 336 337 337 335 334 335
301 300 300 300 301 302 303 304 305 306 307 307 307 307 307 308 308 308 308 308 309 310 310 311 313 313 314 313 313 315 318 318 317 316 316 313 311 311 310 310 310 309 309 311 313 314 312 313 314 314 314 315 316 315 315 315 313 312 313 314 314 315 314 314 316 317 317 317 316 317 317 316 322 331 334 334 332 331 332 333 333 334 336 337 338 336 334 336
301 301 300 300 301 303 305 306 307 308 308 308 308 307 307 308 308 309 309 309 309 310 311 312 312 313 314 315 315 316 318 319 319 319 319 317 315 314 311 310 311 310 310 312 313 314 313 312 313 314 314 315 318 318 317 317 316 314 314 313 314 314 314 314 315 316 317 316 316 317 316 317 326 334 335 336 335 334 334 333 332 334 336 337 338 336 334 335
301 301 301 301 302 304 305 306 307 308 308 307 308 308 308 308 308 309 310 309 309 310 311 311 311 313 315 316 316 317 318 318 319 319 318 318 319 318 313 311 312 310 311 312 312 313 314 313 313 313 313 315 319 321 322 319 316 315 314 314 316 315 315 316 315 316 318 317 316 316 316 318 328 332 334 336 335 333 333 333 331 334 337 338 336 335 333 333
Wind_Speed
15 15 14 14 13 12 13 13 13 13 13 12 12 12 13 13 13 14 14 15 15 16 17 17 18 19 19 20 20 23 25 25 23 19 18 18 15 14 13 12 13 13 11 10 12 13 12 13 14 15 13 10 9 9 11 11 8 7 7 9 9 10 11 11 12 8 7 5 8 6 5 5 6 3 4 6 9 12 9 10 10 8 8 12 14 29 32 29
15 15 15 15 15 15 14 14 14 14 15 14 13 13 14 14 13 13 14 15 15 15 16 17 18 18 19 20 22 24 25 24 23 22 20 20 19 17 16 14 16 16 13 12 14 15 13 12 14 15 11 9 9 10 12 10 10 9 7 9 10 10 11 10 11 5 4 5 4 6 4 5 5 2 2 6 11 13 12 12 12 10 13 16 16 25 28 29
16 16 16 16 16 16 16 16 15 16 16 15 14 13 13 14 13 13 14 15 14 15 16 17 18 18 18 19 22 23 23 23 21 15 7 11 18 16 11 8 12 14 14 15 15 16 15 13 14 14 11 10 9 11 13 10 10 11 9 10 10 13 12 6 6 4 2 5 1 4 4 5 6 5 4 7 9 12 14 12 13 12 15 17 15 19 24 27
17 17 16 16 16 16 17 17 17 17 17 17 16 14 13 14 14 14 14 15 14 14 16 17 17 18 18 19 22 23 21 19 12 2 7 8 10 5 2 3 7 11 14 17 17 16 16 15 13 14 12 11 10 12 13 11 9 9 11 11 10 13 12 5 6 8 6 5 6 6 4 6 7 5 5 7 7 9 13 13 14 14 16 17 17 18 21 23
17 17 17 16 17 17 17 17 18 18 17 18 17 16 15 14 14 14 14 14 14 14 16 16 17 17 19 20 20 21 16 10 2 9 7 9 8 4 2 2 5 9 14 17 18 17 16 16 13 12 12 11 12 12 12 14 11 9 13 15 14 11 8 5 7 9 8 7 8 8 7 8 5 4 8 9 9 8 9 13 15 16 18 18 19 18 19 21
18 17 17 17 17 17 17 17 17 18 18 18 18 17 17 16 14 14 14 14 14 14 15 16 17 17 19 20 19 18 12 5 3 6 3 9 8 3 3 3 4 7 14 18 18 17 16 15 13 12 11 11 14 14 12 15 13 11 12 15 17 14 8 7 6 5 6 8 9 9 10 8 6 8 10 10 12 8 5 11 14 15 19 20 19 18 19 20
18 17 17 18 18 18 17 17 17 17 18 18 18 18 18 18 16 15 14 14 14 14 15 15 16 17 19 20 17 14 11 10 6 1 3 9 6 5 5 5 6 8 15 19 19 18 16 16 16 13 12 12 14 15 13 14 16 14 12 13 15 15 12 9 6 5 7 9 10 9 9 9 9 10 8 10 13 10 7 6 10 14 18 20 19 18 19 21
20 19 18 18 18 19 18 18 18 18 17 18 18 18 18 18 18 17 15 14 14 14 14 14 15 16 18 17 13 9 10 14 10 2 4 10 8 7 9 8 7 8 15 21 21 18 17 18 18 14 13 13 13 15 14 14 16 16 14 13 12 13 14 12 10 9 9 9 9 9 11 11 11 10 10 11 10 10 8 5 8 15 18 18 18 18 18 19
21 21 20 19 18 18 19 19 19 18 18 18 18 18 18 18 18 17 16 15 14 14 14 14 14 15 16 14 10 9 8 10 7 3 3 6 6 7 9 9 6 7 13 20 22 21 17 16 18 16 14 14 14 15 14 13 12 14 17 15 12 11 12 12 13 13 11 8 8 11 13 13 12 11 12 12 12 11 11 10 10 15 18 17 17 17 18 19
20 21 21 20 19 18 18 19 18 18 18 18 18 18 18 17 17 17 17 17 14 14 14 14 14 14 15 13 10 9 6 4 4 4 3 4 5 8 9 9 7 8 11 16 20 22 19 15 17 15 13 13 14 15 15 14 11 9 13 16 17 13 11 11 13 14 11 10 11 12 13 13 13 11 10 13 15 12 12 15 14 15 16 17 16 16 17 18
20 21 21 21 21 20 19 19 18 18 18 18 18 18 18 17 17 17 17 17 16 15 14 13 13 13 16 13 10 10 4 2 3 2 4 6 9 11 10 10 9 10 10 12 18 22 21 20 16 11 11 12 13 15 15 14 12 8 7 12 18 17 13 13 14 13 11 11 12 13 13 13 13 12 12 10 13 13 13 15 16 16 16 17 16 15 15 15
21 21 21 21 21 20 20 19 19 19 18 18 19 19 19 18 17 17 17 17 16 15 15 14 12 14 17 13 13 17 14 15 15 13 14 15 16 14 12 12 12 13 12 12 14 19 22 22 20 15 11 10 11 12 11 14 15 12 9 10 15 17 16 16 15 13 11 10 11 12 12 14 15 14 15 9 9 12 15 15 16 17 15 16 17 15 14 14
22 22 21 21 20 20 20 20 19 19 19 19 19 19 18 18 17 17 17 17 17 16 15 14 13 17 18 13 18 25 24 27 28 26 24 21 19 17 16 15 15 15 15 14 13 15 19 21 21 19 14 11 11 7 5 12 14 12 11 9 10 12 14 17 16 14 14 11 11 11 10 13 15 17 18 12 11 14 16 16 16 16 14 15 15 14 14 15
22 22 22 21 20 19 19 19 19 19 19 20 19 19 18 18 18 17 17 17 17 16 15 15 15 17 16 15 23 29 29 29 28 28 25 20 19 19 18 17 16 17 16 15 14 13 15 20 20 17 15 13 12 7 4 10 12 10 11 9 9 9 11 16 17 17 16 12 13 13 9 10 15 19 20 14 14 16 16 17 16 15 15 14 13 14 15 15
22 22 22 21 20 19 19 18 18 18 19 20 20 20 19 19 19 17 17 18 18 17 17 16 16 16 13 15 22 23 24 28 29 30 26 22 21 19 17 17 17 17 16 15 14 13 14 19 17 13 13 14 14 11 8 9 9 10 11 10 11 10 10 14 18 19 17 13 16 15 9 10 15 20 20 15 15 17 17 17 15 14 14 15 13 13 14 14
22 22 21 21 20 19 19 18 17 17 18 20 20 21 21 20 20 18 17 18 18 17 16 15 15 14 10 12 15 12 14 21 23 24 23 23 22 18 16 16 17 17 17 15 13 12 14 15 13 11 13 14 14 11 8 9 9 10 11 10 12 12 12 11 14 17 17 14 17 17 11 10 14 16 19 16 17 19 16 14 15 15 13 14 13 13 14 15
22 22 22 21 20 19 19 18 17 17 18 19 21 22 22 21 21 19 18 18 19 17 15 15 14 12 11 13 13 10 10 12 14 14 14 19 20 19 16 13 15 17 16 15 13 13 14 13 10 11 12 12 13 11 9 12 11 10 11 11 13 14 13 10 12 15 18 16 16 18 14 14 15 14 18 16 17 19 17 15 17 16 14 14 12 12 14 15
23 23 22 21 20 19 18 18 18 17 18 20 21 22 23 22 20 19 19 18 17 15 14 15 13 8 9 14 16 14 9 5 8 10 10 14 17 18 17 12 13 17 15 13 13 13 12 11 10 11 12 13 13 13 12 13 13 12 12 11 12 13 15 14 11 13 19 18 17 18 16 20 17 12 15 15 17 19 17 15 13 13 13 12 11 10 12 15
23 23 21 20 20 19 17 17 17 17 17 20 21 22 21 20 17 17 19 17 12 10 9 9 13 8 5 6 13 13 10 7 6 9 11 14 14 16 17 15 14 17 15 11 13 15 11 10 12 13 14 15 16 17 16 15 14 15 14 12 12 13 13 15 11 13 19 18 17 18 17 21 18 11 14 15 17 18 15 10 6 9 10 8 10 11 14 16
23 22 21 20 19 18 17 17 16 16 16 19 20 18 15 11 10 10 12 15 13 13 13 10 15 15 12 9 8 6 6 9 9 11 14 14 14 15 15 15 15 15 14 13 14 15 13 11 14 16 17 19 20 21 20 19 16 15 14 12 15 15 9 12 12 12 16 15 15 18 17 21 19 12 15 15 16 18 15 12 9 9 9 7 10 15 17 17
22 22 20 19 19 18 17 17 16 15 16 18 17 13 9 9 9 5 4 10 15 18 20 19 17 18 19 17 14 8 6 7 10 12 14 14 14 14 13 15 16 14 15 16 14 13 14 14 17 20 20 20 21 21 21 21 20 14 12 12 14 14 9 14 13 11 13 13 13 18 17 20 21 13 14 15 16 17 17 17 17 16 14 11 15 18 17 15
21 20 19 18 18 17 17 16 15 16 17 17 16 12 10 13 12 9 8 9 13 18 21 22 23 22 21 22 22 17 12 9 11 12 12 14 15 14 13 16 16 14 16 17 13 12 14 15 19 21 20 19 19 20 21 22 20 13 10 11 11 11 10 14 14 12 12 10 10 18 17 16 20 17 15 17 16 15 16 18 18 18 17 17 20 19 17 15
21 20 19 18 17 17 16 16 16 17 17 16 16 15 13 14 13 11 10 8 11 17 19 21 24 23 21 23 24 21 17 14 12 14 14 14 14 15 14 16 17 16 18 19 15 13 13 14 19 20 19 20 19 21 22 19 16 12 10 10 9 12 12 10 11 11 10 10 10 15 15 13 16 18 16 16 17 15 16 18 16 13 10 9 10 10 14 17
21 20 19 18 18 17 16 17 18 17 15 15 16 15 15 14 12 11 8 7 11 15 20 24 21 19 21 21 21 20 18 15 13 14 17 16 13 14 15 16 18 16 17 22 22 17 14 13 17 20 19 22 21 20 20 15 12 13 14 12 10 13 15 9 9 11 10 11 13 13 11 11 14 17 16 15 17 16 16 17 15 12 9 6 2 5 10 16
21 21 20 19 18 17 18 18 16 13 11 13 12 10 11 11 9 9 6 6 9 12 20 24 17 17 23 23 20 18 15 15 15 14 17 19 16 13 13 13 13 16 19 24 22 16 15 14 17 22 21 23 22 18 19 16 11 13 15 16 12 11 14 13 10 11 10 11 13 12 9 10 13 17 16 13 16 17 16 17 16 14 10 10 9 6 13 13
18 19 20 19 17 19 18 13 10 11 11 10 7 7 8 8 9 9 6 6 9 10 12 14 11 13 19 19 16 14 13 15 16 17 17 19 19 13 11 10 10 15 20 19 15 10 12 16 18 21 22 23 22 16 19 20 12 10 15 18 17 13 14 15 11 10 8 8 13 14 10 7 11 17 18 15 16 18 18 17 19 17 13 11 11 11 11 8
18 18 18 18 17 17 13 10 13 14 11 6 6 8 8 8 13 12 5 6 8 7 10 8 7 11 15 15 16 14 8 8 15 20 19 18 18 15 12 12 10 13 15 12 11 9 13 19 19 22 23 20 18 15 18 21 14 9 14 18 19 16 13 13 12 10 8 7 12 17 14 9 9 15 18 17 17 18 19 18 17 18 17 14 12 10 6 5
20 19 18 17 17 16 14 16 18 14 9 7 7 8 9 10 13 10 4 5 3 3 9 6 5 7 11 13 19 15 4 6 14 18 20 19 18 14 13 15 14 15 16 13 11 11 15 20 19 21 20 15 15 14 17 20 15 11 13 15 18 17 12 11 12 10 9 9 10 15 15 11 9 12 16 19 20 20 21 19 15 15 14 13 13 10 12 16
21 20 20 19 19 18 17 16 17 14 10 8 6 7 9 10 8 3 4 5 1 3 4 5 6 8 10 13 18 18 9 7 8 14 21 20 18 15 11 14 16 16 18 17 13 11 13 17 16 16 14 12 14 16 18 19 15 13 13 13 16 16 13 12 11 9 9 10 10 14 17 11 9 11 13 17 19 19 19 18 16 17 15 15 15 12 18 18
21 21 21 20 20 17 14 13 14 13 9 6 6 7 6 6 3 5 7 4 1 1 1 4 8 11 13 13 14 18 15 9 5 14 20 17 17 16 11 11 14 13 15 16 15 13 14 15 14 13 13 13 16 17 18 18 16 15 12 11 14 14 11 10 8 8 8 10 13 17 19 14 10 11 11 13 15 17 17 16 17 19 19 17 14 17 19 16
24 23 22 21 20 15 12 10 7 4 4 5 5 4 3 1 3 7 6 1 2 4 3 4 8 11 15 14 12 15 16 10 9 16 17 14 16 16 11 10 11 11 12 12 14 16 15 14 13 13 15 16 15 16 17 17 18 16 10 9 11 10 9 8 7 8 8 10 13 17 18 16 12 10 11 12 14 16 16 16 18 19 20 17 14 18 18 16
26 26 24 23 21 16 13 11 7 4 3 4 3 1 1 3 5 7 6 2 1 4 4 1 1 3 12 14 12 15 15 11 12 16 16 14 14 13 12 12 10 11 12 12 13 15 13 13 15 15 17 18 15 14 14 15 17 15 11 11 10 9 9 9 9 9 9 11 11 15 18 16 12 12 13 13 16 17 16 16 17 17 18 17 17 19 16 15
28 28 25 21 17 15 14 12 10 6 3 3 3 2 3 4 5 9 7 1 1 1 3 5 9 8 7 10 11 16 16 12 14 16 16 16 14 13 16 16 15 13 11 12 13 13 12 13 18 18 14 17 17 14 12 12 15 15 12 12 12 9 9 10 10 10 11 10 10 15 17 14 10 11 16 16 15 18 17 17 17 17 17 14 18 20 16 15
29 26 21 17 14 12 12 10 8 5 4 3 4 3 6 7 6 8 5 3 4 2 5 8 12 11 8 10 10 15 15 12 15 16 15 15 13 12 15 18 20 16 9 12 12 12 14 12 16 18 12 15 20 16 13 13 15 15 13 12 12 10 9 9 9 10 10 10 11 14 13 12 10 9 14 16 8 9 13 15 13 12 13 10 18 21 18 17
28 21 17 13 10 8 8 8 7 7 5 3 4 5 7 7 5 3 0 5 6 5 8 11 12 11 9 10 11 16 14 10 16 16 13 14 12 12 14 15 20 18 11 12 9 11 16 11 13 18 13 16 20 17 16 16 14 12 12 13 12 11 9 7 8 8 7 7 10 10 8 8 8 4 9 13 8 7 8 9 9 8 10 12 17 19 17 16
24 16 13 10 7 5 4 5 7 9 6 3 5 6 7 6 3 2 3 3 4 7 11 10 7 7 7 9 11 17 16 10 15 15 11 14 13 14 15 13 18 20 14 11 8 10 14 10 15 20 16 17 19 18 18 15 10 10 12 14 12 13 11 7 8 6 5 7 8 8 8 8 7 5 7 11 10 12 10 8 8 9 12 16 16 15 15 14
20 13 10 7 5 4 4 5 7 9 6 4 6 6 7 5 2 3 2 1 1 5 10 7 3 4 2 6 10 17 15 10 15 13 10 13 13 15 17 14 18 21 17 12 9 10 11 9 15 21 18 18 19 18 17 15 12 9 11 13 12 13 12 8 8 5 6 9 7 10 13 11 8 8 10 12 11 11 13 12 11 11 12 14 13 13 14 14
19 14 9 4 2 3 4 5 9 8 4 4 8 9 9 6 3 3 2 2 2 4 7 5 2 4 5 3 8 17 14 10 14 13 10 11 11 15 18 15 17 21 21 16 10 10 12 8 13 19 18 17 19 17 15 17 18 13 11 11 10 11 12 10 9 8 9 9 7 11 15 12 10 9 11 16 15 13 14 13 13 14 14 13 14 15 14 14
17 11 4 1 2 3 2 6 8 6 4 6 8 7 6 5 3 4 3 1 2 4 6 4 3 5 8 8 7 14 12 11 13 12 10 9 9 15 18 13 15 21 21 18 11 10 12 7 9 16 18 16 15 14 12 14 17 15 12 12 10 8 10 10 8 7 8 9 8 11 12 10 11 11 11 15 16 16 16 14 14 15 14 13 13 15 15 14
11 5 1 1 3 3 3 6 7 5 5 7 8 6 5 4 2 3 3 3 3 2 4 5 6 7 8 10 6 8 10 11 13 11 9 9 9 13 18 14 14 19 21 19 13 10 11 8 8 13 17 14 12 12 14 15 15 13 12 13 12 9 8 9 8 8 8 8 8 8 9 8 7 9 12 13 14 15 15 15 14 14 14 13 12 15 15 15
7 4 2 3 3 3 5 5 5 5 6 7 7 7 5 4 3 1 2 2 2 1 4 7 8 9 8 8 7 5 8 9 12 10 7 10 9 8 14 16 15 18 18 17 14 10 9 8 8 10 13 13 13 14 17 17 16 13 11 12 13 11 9 9 10 11 9 8 8 7 8 6 4 6 10 11 11 13 15 16 14 13 14 13 12 16 16 15
7 4 1 1 2 4 6 5 4 6 6 4 4 6 5 3 4 4 1 2 4 4 5 7 8 9 8 7 8 6 5 7 11 9 6 12 11 8 14 17 16 17 16 13 13 12 8 6 9 10 11 12 15 17 17 18 18 16 13 12 12 12 12 10 10 11 10 9 8 8 8 3 2 1 5 7 8 8 8 10 10 10 12 11 12 16 16 15
5 4 2 1 2 5 6 4 5 5 4 4 6 7 6 3 4 4 3 4 5 3 4 6 7 8 7 6 7 8 6 6 11 9 7 12 11 10 16 19 17 18 15 11 13 12 7 6 8 10 10 11 14 17 17 17 18 17 15 14 13 14 14 12 9 8 8 10 9 7 8 4 3 4 4 5 6 6 6 8 10 9 9 11 14 15 15 16
6 5 0 1 1 6 5 4 3 3 4 7 7 7 6 4 4 5 6 5 4 4 5 6 6 7 6 8 8 8 8 5 10 9 8 10 9 10 18 21 18 17 13 11 11 9 6 8 9 9 10 12 13 14 15 16 16 13 13 16 17 17 16 13 10 7 7 12 12 9 7 5 3 1 3 5 8 9 7 8 10 10 11 13 14 13 14 16
6 4 1 1 3 6 4 4 5 5 6 8 8 7 6 4 4 5 7 7 6 6 6 6 7 8 8 9 8 9 11 8 5 4 5 9 7 8 18 21 18 16 15 13 12 10 8 9 10 9 11 13 12 12 12 13 13 11 14 19 19 20 19 14 10 8 8 11 12 11 6 6 5 3 6 8 10 11 10 9 10 10 11 12 12 13 13 15
4 3 3 2 1 3 4 3 4 4 5 7 7 6 5 5 4 4 6 7 7 8 8 8 9 10 10 10 8 8 10 8 4 3 5 9 7 7 16 20 18 18 13 8 10 11 7 9 12 12 11 11 11 10 10 12 13 13 16 20 19 20 20 16 10 9 8 8 9 11 9 8 7 8 9 9 10 11 11 10 10 10 11 12 13 13 12 13
3 3 4 4 3 3 3 3 3 4 5 6 5 4 5 7 6 3 5 5 6 7 7 9 10 9 9 8 6 6 9 8 5 6 7 8 7 10 16 18 18 16 9 5 10 10 6 9 15 14 12 13 12 11 12 13 15 16 17 19 19 20 21 17 13 12 11 8 8 12 14 12 8 10 10 10 11 12 10 10 10 10 11 12 13 13 13 14
2 2 2 2 3 4 4 5 6 7 8 6 4 4 6 9 8 4 3 4 6 6 5 6 9 10 11 8 4 5 9 8 5 6 6 7 9 12 15 16 16 15 11 10 12 9 6 9 14 14 13 11 10 12 15 16 16 17 18 18 18 20 21 18 15 15 14 10 8 10 14 14 8 10 11 12 13 12 9 9 10 10 11 12 13 15 14 15
2 3 3 2 4 6 9 10 10 11 9 5 4 4 6 8 7 5 3 3 5 5 6 7 7 8 11 10 6 5 4 4 5 6 7 9 11 11 12 13 14 16 14 13 12 10 8 7 12 14 12 8 7 9 13 15 17 18 18 18 17 17 19 18 17 17 15 13 12 9 9 12 8 8 10 11 12 11 9 9 10 12 13 13 14 15 14 14
3 3 3 4 6 7 9 9 8 9 7 4 3 3 5 6 6 7 5 4 5 3 5 7 8 9 9 7 6 3 1 2 3 5 5 6 10 10 10 11 12 15 16 12 11 11 9 6 11 13 9 8 8 7 8 10 13 16 17 18 18 17 18 18 17 17 15 14 14 8 6 9 6 11 12 10 10 11 11 10 11 12 14 15 15 15 14 14
6 4 4 5 6 7 7 7 6 6 4 3 3 5 6 7 8 9 6 5 7 5 4 6 9 12 10 3 4 2 2 4 4 3 2 1 4 4 7 10 12 13 14 12 11 11 8 5 9 10 8 8 7 6 8 10 12 15 17 19 19 17 16 15 15 15 15 14 14 9 6 6 7 14 12 9 10 11 12 11 10 11 14 15 15 15 15 14
11 6 4 5 6 6 6 7 6 5 4 5 7 9 9 10 10 10 5 3 7 6 5 7 9 10 7 2 3 2 4 4 2 2 2 3 3 4 4 8 12 13 12 11 10 10 8 5 7 9 8 7 8 7 7 9 12 12 13 16 19 17 16 15 15 15 15 13 11 9 8 6 8 13 11 10 11 11 11 10 10 12 15 14 13 15 16 14
Wind_Direction
332 327 312 296 288 289 292 294 296 296 297 300 306 311 314 318 322 326 328 327 328 329 328 328 327 326 325 325 321 316 314 310 303 292 273 265 261 255 259 251 249 251 243 254 247 240 235 221 218 216 217 218 219 229 221 213 216 218 223 234 235 234 236 239 242 238 247 227 143 162 174 200 231 178 208 206 216 233 213 206 212 188 109 67 100 130 144 153
335 331 326 315 304 296 289 286 289 289 288 288 293 303 306 307 315 321 323 324 324 327 329 328 328 326 325 324 318 316 314 305 292 281 272 262 255 255 261 255 252 252 243 245 235 225 225 217 209 209 214 219 213 217 222 205 207 222 219 228 231 237 238 239 257 258 252 266 128 141 166 202 231 241 223 219 215 210 211 206 194 173 117 99 114 132 144 150
337 333 330 324 319 311 302 293 288 286 286 286 284 291 299 301 306 314 319 321 320 326 328 326 328 326 324 321 315 317 312 301 286 273 269 238 232 242 255 249 247 246 236 236 235 228 231 227 212 208 214 225 215 210 219 199 198 222 222 232 229 237 245 237 269 287 278 298 277 183 190 209 229 243 240 248 233 201 209 202 184 176 136 128 141 144 148 152
339 335 332 328 324 319 315 309 301 295 293 291 286 284 289 294 298 304 313 316 318 323 325 326 328 325 324 319 313 315 307 294 282 172 113 163 187 192 224 255 255 244 236 237 243 241 239 241 227 213 217 225 219 212 218 203 200 217 220 237 236 233 243 217 221 247 254 273 262 245 229 224 230 241 241 251 249 212 209 199 188 177 146 148 154 153 158 157
339 335 334 330 326 323 319 317 312 307 302 296 292 286 282 284 290 297 304 309 314 319 322 325 325 325 324 318 314 314 301 288 88 109 130 161 140 75 30 324 285 250 238 233 238 243 240 240 235 221 220 226 221 214 217 211 211 223 224 236 246 243 247 230 217 231 245 248 252 252 238 233 232 237 238 238 241 227 206 197 194 174 158 163 158 158 166 161
336 333 333 330 328 326 322 318 315 312 309 304 297 292 286 281 281 288 295 302 308 315 318 321 324 325 321 316 310 301 281 277 79 109 165 168 144 23 357 2 322 255 233 226 226 231 231 228 227 221 219 225 225 220 217 213 214 229 232 230 241 250 252 247 226 210 233 241 237 237 237 242 252 243 234 235 241 252 240 204 192 174 164 159 152 162 169 165
334 330 328 328 328 325 323 320 317 316 313 309 303 297 292 285 281 280 283 292 300 308 313 317 322 322 320 319 305 280 252 270 280 166 226 195 186 334 322 315 307 251 222 218 218 219 221 219 219 218 219 223 226 226 219 216 218 227 239 231 232 243 243 237 226 204 217 237 240 243 250 246 243 241 228 231 236 248 275 231 178 157 149 145 150 166 172 169
333 331 326 324 324 322 322 320 317 317 314 311 306 301 296 290 286 280 278 284 292 300 307 313 318 320 321 319 306 279 246 260 262 220 241 217 224 309 307 297 290 250 221 214 215 215 216 217 217 217 221 222 225 228 221 221 224 223 238 243 232 233 234 230 231 232 228 237 243 241 247 242 238 245 239 235 234 232 236 215 161 145 142 149 160 169 173 172
328 329 328 324 322 320 319 317 317 315 313 312 308 304 299 294 290 283 278 279 283 290 298 306 313 316 313 304 293 284 262 262 263 237 231 212 235 287 291 285 280 266 231 216 216 217 216 217 217 218 227 228 227 230 223 224 227 221 230 241 242 232 231 234 236 239 237 237 238 236 238 236 234 243 248 241 238 230 204 191 172 154 155 161 168 172 174 173
320 323 324 323 322 320 316 314 313 312 312 311 309 307 300 296 292 284 279 276 276 281 288 295 304 311 304 293 277 268 269 280 270 241 213 210 270 291 276 268 274 277 247 222 219 219 219 220 218 223 236 238 233 232 225 225 228 227 230 236 242 241 233 234 237 234 233 233 233 238 236 232 228 230 244 234 222 215 193 191 182 166 166 165 170 177 175 174
314 315 316 316 317 318 318 315 312 310 311 310 309 309 304 299 294 287 281 277 276 276 280 284 293 303 295 286 267 250 254 291 262 246 247 259 286 288 269 263 265 266 256 235 225 222 223 224 223 224 232 236 241 238 230 228 232 235 243 241 238 241 238 231 234 230 227 230 225 235 241 235 228 226 240 224 195 193 193 194 182 173 174 166 170 180 176 175
313 310 308 309 310 312 316 316 314 310 308 308 308 307 306 302 296 290 283 277 275 273 277 279 282 292 287 275 253 246 259 278 281 282 278 278 283 278 269 264 256 251 252 248 234 226 226 226 226 227 227 228 237 242 234 225 231 234 234 247 236 233 237 231 230 227 223 229 216 223 236 231 225 225 233 212 169 190 194 190 180 173 174 166 170 180 179 176
317 312 307 305 303 304 309 311 313 312 308 305 305 306 305 302 297 290 283 277 272 271 275 277 280 283 278 268 258 256 262 271 275 277 275 274 274 269 262 254 247 244 245 249 246 234 230 229 230 231 232 231 228 241 263 224 223 232 225 238 243 230 232 226 223 223 220 224 214 215 228 224 218 220 224 198 175 199 192 185 183 174 170 164 169 180 181 178
320 316 312 307 301 299 301 303 307 310 307 303 302 304 302 300 297 290 283 276 272 272 272 274 279 278 271 266 267 264 259 262 267 268 266 265 264 263 255 243 237 236 234 241 248 247 236 230 233 235 233 236 235 224 246 226 210 223 224 224 238 237 233 216 207 213 216 213 208 215 235 228 211 210 214 190 180 200 191 186 184 175 174 164 171 185 181 179
322 320 316 311 305 300 297 297 300 304 306 305 302 300 300 298 294 287 280 275 270 268 270 273 270 266 270 270 270 268 256 252 255 255 254 253 253 253 244 229 225 225 224 230 238 245 236 226 229 236 227 227 240 228 214 223 207 211 222 220 223 231 241 215 194 202 210 202 199 211 232 233 219 202 194 182 185 200 194 187 177 172 176 166 175 191 183 179
323 321 319 316 310 304 298 296 296 299 304 305 301 299 296 295 293 286 279 273 268 265 264 266 254 244 262 275 269 267 246 238 242 247 243 238 237 239 234 221 214 213 217 220 225 231 226 221 221 230 227 214 224 230 214 218 211 206 217 225 218 217 236 216 181 190 207 201 195 209 223 236 231 191 173 180 190 196 193 186 178 172 178 175 180 194 187 179
325 323 320 318 314 309 302 297 296 298 301 302 300 297 292 290 291 283 272 264 263 259 245 248 250 238 248 266 265 255 241 228 226 231 225 219 221 226 228 218 204 201 205 210 214 218 213 212 213 219 226 215 210 216 217 213 207 206 208 224 226 217 226 214 171 179 205 208 198 205 220 239 233 174 163 184 192 195 189 189 187 173 180 185 183 195 192 182
327 322 319 317 315 311 304 299 297 297 300 299 298 297 293 288 283 274 264 255 253 248 236 244 251 247 242 240 242 247 262 248 207 218 215 203 208 217 222 218 199 191 195 203 205 207 203 200 208 213 216 215 207 206 214 212 206 208 204 215 226 219 221 217 187 178 199 209 205 201 212 237 236 176 167 186 194 199 186 188 190 169 181 184 174 198 201 188
329 324 321 317 314 312 307 301 296 294 297 297 300 303 296 283 270 258 249 238 227 220 227 223 204 220 301 237 223 236 260 263 222 224 218 199 199 208 217 219 201 188 191 196 192 196 196 194 204 213 211 208 206 207 216 222 217 215 213 211 220 221 216 216 204 179 193 205 207 203 205 228 233 190 182 190 196 200 173 170 200 171 180 182 175 198 202 193
332 329 324 319 315 313 309 302 294 291 293 297 304 305 295 274 253 244 235 228 224 223 239 235 198 220 280 284 236 216 228 228 217 222 215 199 195 200 208 213 200 192 198 196 186 188 193 199 206 210 209 206 207 211 217 227 231 225 220 212 219 226 211 215 214 173 188 205 206 208 207 219 227 201 192 193 197 199 169 165 212 197 176 186 197 200 200 196
336 332 327 322 317 313 310 305 296 288 288 293 297 296 288 281 278 299 289 245 236 232 243 252 239 239 258 266 262 260 265 231 212 219 209 191 192 196 197 201 199 194 200 200 187 185 196 209 213 208 209 209 206 212 215 223 232 233 229 216 216 224 207 209 209 164 188 213 207 211 212 216 221 208 197 197 199 202 183 178 196 193 176 186 207 204 199 195
335 334 330 325 318 315 311 305 294 286 285 285 283 276 273 281 292 306 299 271 246 238 242 248 250 251 249 255 259 260 269 254 224 221 198 182 196 198 187 193 203 195 192 198 190 186 202 216 214 206 209 212 207 211 215 220 226 229 234 225 212 214 203 202 197 169 190 217 208 208 214 218 218 214 207 200 203 206 199 194 191 190 183 186 199 196 192 195
333 334 333 329 325 318 310 302 295 286 281 276 273 273 277 285 296 295 278 276 266 251 246 244 244 245 241 244 247 243 245 242 231 219 196 189 203 202 193 194 203 198 189 198 198 192 204 212 211 205 205 212 211 209 212 217 222 223 226 222 207 204 203 199 187 176 194 217 222 213 211 219 217 216 213 204 205 207 205 203 193 194 192 188 208 200 191 197
331 332 333 334 329 320 313 307 298 284 273 269 271 278 292 291 286 290 286 275 269 257 247 243 240 239 237 236 232 228 231 230 228 219 198 196 206 206 206 200 201 205 196 200 204 204 210 202 202 206 202 209 214 208 207 212 215 216 218 217 209 204 209 210 181 178 200 218 230 229 213 215 216 214 210 202 205 208 207 201 192 194 179 150 229 281 241 215
329 328 329 331 329 323 318 308 296 287 281 279 283 299 313 302 281 283 289 272 265 258 245 236 231 234 230 227 223 217 223 225 223 221 202 196 203 205 207 205 204 209 201 200 205 210 212 198 193 203 204 207 212 207 203 207 209 209 216 227 234 221 215 217 192 181 202 210 214 226 221 209 212 214 209 199 202 208 207 197 193 196 178 160 171 210 249 237
329 327 324 325 324 323 317 306 301 303 297 296 317 339 332 327 325 310 279 263 271 260 235 212 199 206 207 211 209 198 217 226 213 218 212 197 203 210 207 204 208 213 204 198 207 214 210 201 193 200 205 204 208 208 199 203 212 208 207 222 238 242 225 216 201 191 207 205 195 209 228 214 207 216 209 198 204 208 210 201 192 195 189 186 183 184 227 234
328 325 323 319 316 318 311 304 310 306 299 314 341 331 325 339 336 326 281 256 272 233 192 175 158 168 184 191 181 181 221 210 188 209 214 192 198 215 216 204 200 212 206 193 206 211 201 203 197 199 205 201 204 208 197 201 212 211 199 205 221 236 234 215 203 204 215 214 194 198 222 236 217 214 201 197 210 210 215 210 187 189 190 186 193 187 178 105
324 322 322 316 307 302 293 295 302 299 300 321 331 323 328 339 333 325 254 242 295 142 156 147 108 153 184 174 171 193 234 143 167 194 200 192 196 208 218 212 205 206 204 200 205 193 192 206 201 197 201 197 201 201 192 199 211 219 205 196 208 223 230 219 212 216 221 227 208 191 208 238 236 215 195 198 214 213 214 208 177 180 188 185 199 175 114 106
320 317 317 315 305 293 284 281 283 286 298 315 331 335 339 341 335 320 227 245 252 99 133 134 132 168 179 161 179 211 215 174 184 176 180 194 201 207 222 218 211 207 206 211 212 187 191 208 197 186 193 193 199 201 198 200 207 221 214 191 199 212 218 221 220 221 220 230 228 196 195 221 239 225 204 201 211 212 212 206 184 182 190 199 195 141 112 123
318 312 313 313 304 295 286 271 263 273 294 318 331 336 356 359 319 211 217 255 116 88 326 170 171 174 172 166 190 212 208 207 195 159 171 189 197 208 225 221 219 215 206 210 217 204 192 196 186 183 201 204 200 205 207 203 203 216 216 191 194 202 207 216 222 226 223 226 232 214 201 210 229 228 214 205 209 210 211 209 199 190 190 199 177 125 121 135
317 311 311 307 297 294 293 281 273 278 298 320 323 328 5 9 258 222 205 205 20 350 337 187 176 170 176 180 186 200 205 198 163 163 174 180 187 200 208 209 216 213 202 202 214 210 193 190 190 191 209 212 204 205 204 197 201 209 204 187 189 191 198 210 213 223 231 224 222 219 215 215 221 228 219 204 203 210 213 212 209 198 190 189 159 129 134 138
316 313 311 303 290 281 272 274 295 304 284 298 297 289 278 246 240 227 204 175 329 349 360 330 290 187 188 193 183 185 197 188 168 176 179 177 184 191 197 198 191 195 198 191 199 203 193 194 197 196 210 212 203 199 192 186 199 203 188 188 194 186 192 204 202 208 226 228 212 209 218 222 222 229 228 204 193 208 218 215 213 207 201 188 155 143 146 140
316 314 309 299 285 272 264 267 279 275 247 272 261 204 236 261 247 223 216 246 7 331 348 336 322 303 229 210 189 180 194 190 175 183 183 183 185 186 200 204 195 199 197 184 189 193 188 190 196 199 205 208 207 202 185 180 197 199 185 190 198 188 187 198 202 206 218 226 218 208 214 225 224 222 234 228 200 197 209 217 216 209 211 192 148 146 152 146
317 312 302 290 278 270 268 263 254 233 209 236 244 212 226 245 254 230 216 21 12 321 323 321 309 293 241 219 195 175 191 191 176 182 183 184 187 186 199 203 200 205 196 185 191 193 191 187 193 200 192 196 209 206 187 187 198 197 191 199 207 200 193 197 201 208 212 212 214 213 211 222 221 201 223 238 218 183 202 212 208 201 208 182 139 144 151 152
319 308 292 281 268 267 270 253 224 201 195 223 245 236 237 244 263 263 56 17 353 339 329 312 294 277 228 212 200 181 191 189 174 185 188 186 191 187 192 197 197 202 195 186 191 195 200 193 189 198 193 192 202 199 191 197 197 189 193 208 215 207 196 198 212 223 232 218 206 210 216 222 226 203 216 227 203 177 205 194 166 169 175 141 129 144 150 154
318 307 289 272 252 254 265 241 208 193 193 240 255 240 247 260 299 16 50 16 335 337 330 315 293 279 220 199 194 184 193 189 173 185 191 189 196 190 189 194 195 202 202 189 188 192 200 194 181 188 193 195 201 199 196 200 193 180 198 212 212 210 207 199 212 232 256 232 203 196 214 216 219 223 226 230 202 176 191 189 166 173 159 131 127 148 154 155
316 311 298 280 255 248 254 231 201 196 200 239 255 256 266 281 36 78 87 42 331 327 327 327 337 321 241 194 188 177 183 184 176 186 188 187 198 191 189 194 194 204 212 202 193 188 192 187 174 180 189 191 197 206 204 201 200 189 198 208 203 210 219 208 202 207 214 225 208 191 205 209 209 203 197 215 216 185 187 195 191 193 178 152 144 150 151 154
307 302 295 291 293 277 255 214 200 205 214 240 256 266 273 291 18 64 73 49 341 317 323 332 324 320 337 292 191 171 176 185 177 185 186 185 195 188 190 193 189 201 212 209 198 184 192 188 166 179 191 185 188 207 209 201 210 213 201 204 205 205 214 212 204 200 200 215 214 197 202 209 214 207 186 197 209 205 200 197 192 193 191 184 170 154 153 160
302 299 287 75 339 302 223 192 201 212 223 240 255 262 272 298 352 40 45 17 328 316 316 330 312 298 314 299 214 171 177 184 175 183 190 187 187 185 190 190 184 195 206 208 196 181 196 192 162 183 192 181 182 203 206 192 207 225 212 202 215 213 211 214 211 207 203 211 216 206 205 211 214 212 198 193 198 207 210 202 194 189 186 193 184 161 160 167
310 311 237 198 304 295 182 190 207 212 223 241 254 266 289 315 352 63 42 340 326 314 296 311 303 292 300 299 270 192 183 178 177 187 187 182 176 179 189 187 181 190 201 206 196 180 196 189 161 182 188 185 188 199 204 190 189 214 213 198 204 210 210 214 214 214 212 210 211 212 216 211 202 209 206 191 188 203 210 203 197 187 178 187 180 159 160 167
311 303 208 207 280 248 197 209 218 218 234 245 256 277 310 339 323 331 51 326 295 228 267 291 288 285 292 301 295 225 184 169 182 190 172 174 174 175 191 188 180 184 194 203 193 182 197 186 168 181 187 196 196 191 205 202 187 200 216 204 200 200 202 209 209 211 219 218 205 209 225 214 188 214 208 186 183 200 206 203 198 183 176 182 172 156 157 159
295 301 123 138 294 220 202 229 240 234 245 260 289 297 305 321 299 299 322 279 274 255 260 275 279 281 280 284 294 270 215 169 180 189 165 169 174 174 185 182 178 185 192 192 182 185 200 182 175 185 186 197 191 185 202 208 197 201 213 211 208 203 203 210 208 205 214 226 218 213 215 197 59 231 181 165 175 184 187 182 173 166 171 170 152 147 152 150
295 322 66 38 292 191 198 246 251 239 267 328 335 307 289 283 287 299 306 282 283 280 264 268 273 273 268 270 285 281 256 185 176 185 173 171 183 185 178 175 179 188 195 188 175 181 195 183 180 179 176 190 189 183 197 208 206 206 206 209 216 211 205 215 223 211 213 225 224 219 206 164 59 41 90 134 151 124 116 139 144 147 148 139 132 138 150 151
311 314 356 56 167 180 208 291 313 308 327 334 330 315 305 300 277 279 286 277 273 276 273 274 272 267 272 282 284 282 275 219 174 181 177 171 182 174 167 177 187 186 191 196 177 168 186 190 183 175 170 179 184 182 192 206 213 209 201 208 220 217 207 214 229 223 223 226 221 223 215 162 119 110 132 167 169 143 128 131 132 131 125 126 134 145 156 158
310 305 274 118 160 193 244 318 332 327 327 320 318 317 301 274 272 292 293 284 272 268 273 276 274 272 274 278 281 276 272 259 195 184 171 153 149 155 166 181 191 183 185 191 171 163 191 197 185 183 181 179 185 188 185 193 206 209 203 207 216 219 210 207 219 219 216 221 219 225 211 118 107 183 170 177 180 155 135 119 116 124 128 136 148 153 155 160
316 327 337 354 186 234 266 288 288 291 310 316 315 319 302 279 287 292 274 270 262 252 258 265 271 278 269 260 266 260 247 246 244 219 171 143 134 162 172 179 187 187 185 178 157 164 199 207 193 194 194 188 193 194 180 181 198 206 207 207 209 216 216 208 210 221 217 211 217 222 204 147 148 179 175 175 172 149 137 136 138 142 144 149 153 150 150 158
331 338 345 340 320 291 276 269 263 268 295 312 318 327 315 301 302 276 229 239 247 237 247 258 252 260 261 244 245 241 217 207 214 207 174 139 133 153 163 176 186 180 175 192 182 181 205 206 200 205 208 200 191 188 188 191 200 205 209 211 205 208 218 217 210 219 223 216 215 215 214 209 181 162 171 179 161 143 143 154 153 153 160 160 151 146 149 157
6 323 331 316 302 309 310 308 306 296 289 287 289 293 293 297 307 307 243 242 249 229 231 254 239 241 260 256 244 234 203 183 194 202 170 136 138 147 155 176 183 160 158 196 193 192 214 201 201 214 219 212 198 196 201 199 201 206 208 212 209 204 212 217 215 219 223 223 224 214 216 222 195 152 170 172 153 151 163 163 156 156 164 163 147 145 155 161
352 312 323 298 287 295 297 298 298 295 289 274 261 264 278 292 305 309 291 270 269 239 226 254 257 253 258 249 240 250 208 174 186 185 164 147 150 151 153 174 177 157 168 195 189 195 220 196 195 207 210 220 230 225 218 206 202 205 204 208 212 209 210 213 214 217 219 223 234 238 231 227 201 142 148 146 138 151 160 158 163 163 163 164 154 150 158 166
338 312 321 305 295 291 290 295 292 289 290 276 264 282 295 299 311 316 309 287 288 272 223 248 282 297 281 238 217 247 333 64 126 151 168 156 150 156 160 170 172 163 176 195 184 193 218 194 187 198 200 213 228 241 245 227 212 208 205 206 208 208 210 211 211 213 214 219 226 230 243 230 178 108 108 117 126 145 152 155 168 169 165 167 161 152 156 169
326 290 286 296 306 306 304 311 304 296 308 315 315 329 324 314 319 324 314 259 251 261 256 268 295 311 309 265 206 254 350 29 67 132 198 110 125 166 175 173 173 166 178 192 180 187 219 208 185 193 202 205 206 217 232 236 233 222 210 205 204 206 208 206 207 209 210 216 217 206 217 221 132 103 109 126 132 145 154 158 165 168 169 171 164 154 158 166
337 312 297 294 294 304 315 318 313 312 332 337 328 326 321 317 320 325 323 232 222 240 274 286 295 307 308 210 186 303 355 6 17 180 174 107 146 207 198 181 179 170 177 189 179 180 200 204 188 193 201 198 191 195 211 220 227 226 215 208 205 204 205 202 204 207 207 213 215 206 223 224 135 127 140 151 150 153 157 161 165 166 169 170 159 153 158 154